DW3823 Weather Reports


Display with metric or nautical units.
time (UTC)temp
F
wind
direction
speed
MPH
gust
MPH
rain 1hr
in
rain 24hr
in
rain mn
in
humidity
%
barometer
mb
20260507051541 53 80 0.0 2.0 0.00 0.49 0.00 97 1014.6
20260507051032 53 80 0.0 1.0 0.00 0.49 0.00 97 1014.5
20260507050532 53 80 0.0 1.0 0.00 0.49 0.00 97 1014.7
20260507050036 53 80 0.0 1.0 0.00 0.49 0.00 97 1014.5
20260507045531 52 80 0.0 1.0 0.00 0.49 0.49 96 1014.5
20260507045031 53 80 0.0 3.0 0.00 0.49 0.49 97 1014.4
20260507044531 53 184 0.0 2.0 0.00 0.49 0.49 97 1014.4
20260507044030 52 206 0.0 2.0 0.00 0.49 0.49 96 1014.4
20260507043529 53 206 0.0 1.0 0.00 0.49 0.49 96 1014.4
20260507043029 53 206 0.0 1.0 0.00 0.49 0.49 97 1014.3
20260507042533 53 206 0.0 1.0 0.00 0.49 0.49 96 1014.3
20260507042028 53 206 0.0 2.0 0.00 0.49 0.49 97 1014.3
20260507041529 53 206 0.0 2.0 0.00 0.49 0.49 96 1014.2
20260507041028 53 209 0.0 3.0 0.00 0.49 0.49 97 1014.0
20260507040527 53 279 0.0 3.0 0.00 0.49 0.49 96 1014.3
20260507040128 53 71 0.0 4.0 0.00 0.49 0.49 97 1014.4
20260507035527 53 70 1.0 4.0 0.00 0.49 0.49 97 1014.2
20260507035027 53 76 1.0 3.0 0.00 0.49 0.49 97 1013.9
20260507034535 53 333 0.0 2.0 0.00 0.49 0.49 97 1014.1
20260507034026 53 90 0.0 2.0 0.00 0.49 0.49 97 1013.7
20260507033526 53 347 0.0 3.0 0.00 0.49 0.49 97 1013.9
20260507033038 53 69 1.0 5.0 0.00 0.49 0.49 97 1013.9
20260507032525 53 64 0.0 5.0 0.00 0.49 0.49 97 1013.7
20260507032025 53 251 1.0 3.0 0.00 0.49 0.49 97 1013.5
20260507031525 53 331 1.0 3.0 0.00 0.49 0.49 97 1013.8
20260507031025 53 96 0.0 3.0 0.00 0.49 0.49 96 1013.5
20260507030524 53 313 1.0 3.0 0.01 0.49 0.49 97 1013.7
20260507030027 53 290 0.0 3.0 0.02 0.49 0.49 96 1013.5
20260507025523 53 328 0.0 3.0 0.02 0.50 0.49 96 1013.4
20260507025023 53 322 0.0 3.0 0.02 0.50 0.49 96 1013.8
20260507024523 53 62 0.0 3.0 0.02 0.50 0.49 96 1014.0
20260507024021 53 78 0.0 3.0 0.02 0.50 0.49 96 1013.9
20260507023521 53 20 0.0 2.0 0.02 0.50 0.49 97 1014.2
20260507023027 53 12 1.0 2.0 0.02 0.50 0.49 96 1014.4
20260507022522 53 11 0.0 2.0 0.02 0.50 0.49 97 1014.7
20260507022022 53 12 0.0 3.0 0.02 0.50 0.49 96 1014.5
20260507021521 53 85 1.0 3.0 0.02 0.50 0.49 96 1014.4
20260507021024 53 85 1.0 3.0 0.02 0.50 0.49 96 1014.6
20260507020522 54 63 1.0 3.0 0.01 0.49 0.48 96 1015.0
20260507020022 54 24 1.0 3.0 0.00 0.48 0.47 96 1015.0
20260507015520 54 299 0.0 2.0 0.00 0.49 0.47 96 1015.1
20260507015023 54 290 0.0 2.0 0.00 0.49 0.47 96 1013.9
20260507014519 54 291 0.0 2.0 0.00 0.49 0.47 96 1013.6
20260507014019 53 290 0.0 2.0 0.00 0.49 0.47 96 1013.9
20260507013520 54 288 0.0 3.0 0.00 0.49 0.47 96 1013.9
20260507013019 54 232 1.0 3.0 0.00 0.49 0.47 96 1014.0
20260507012518 54 167 0.0 1.0 0.00 0.49 0.47 96 1013.2
20260507012018 54 167 0.0 2.0 0.00 0.49 0.47 96 1013.0
20260507011517 53 167 0.0 3.0 0.00 0.49 0.47 96 1012.7
20260507011017 53 167 0.0 3.0 0.00 0.49 0.47 96 1012.3
20260507010517 53 167 0.0 3.0 0.00 0.49 0.47 96 1012.2
20260507010023 53 91 0.0 1.0 0.00 0.49 0.47 96 1012.2
20260507005517 53 91 0.0 2.0 0.01 0.49 0.47 96 1012.3
20260507005016 53 91 0.0 2.0 0.01 0.49 0.47 96 1012.3
20260507004516 54 74 0.0 1.0 0.02 0.49 0.47 96 1012.3
20260507004016 54 74 0.0 3.0 0.02 0.49 0.47 96 1012.3
20260507003516 54 73 0.0 3.0 0.02 0.49 0.47 96 1012.1
20260507003015 54 355 0.0 3.0 0.02 0.49 0.47 96 1012.3
20260507002515 54 184 0.0 1.0 0.02 0.49 0.47 96 1012.4
20260507002017 54 184 0.0 2.0 0.02 0.49 0.47 96 1012.7
20260507001516 54 184 0.0 2.0 0.03 0.49 0.47 96 1012.8
20260507001014 54 184 0.0 2.0 0.03 0.49 0.47 96 1013.3
20260507000514 54 193 0.0 2.0 0.03 0.49 0.47 96 1013.2
20260507000017 54 194 0.0 2.0 0.03 0.49 0.47 96 1013.3
20260506235515 54 194 0.0 2.0 0.02 0.48 0.46 96 1013.5
20260506235014 54 194 0.0 2.0 0.02 0.48 0.46 96 1013.7
20260506234514 54 196 0.0 3.0 0.01 0.47 0.45 96 1013.9
20260506234014 54 196 0.0 3.0 0.01 0.47 0.45 96 1014.5
20260506233514 54 68 0.0 3.0 0.01 0.47 0.45 96 1013.0
20260506233012 54 67 1.0 5.0 0.01 0.47 0.45 95 1012.8
20260506232512 54 263 0.0 5.0 0.01 0.47 0.45 95 1013.5
20260506232011 54 311 1.0 3.0 0.01 0.47 0.45 95 1012.9
20260506231511 54 132 0.0 4.0 0.00 0.46 0.44 95 1012.7
20260506231010 54 94 0.0 5.0 0.00 0.46 0.44 95 1012.5
20260506230510 54 46 1.0 5.0 0.00 0.46 0.44 95 1012.6
20260506230010 54 350 0.0 4.0 0.00 0.46 0.44 95 1012.9
20260506225513 54 149 1.0 3.0 0.00 0.46 0.44 95 1013.1
20260506225010 55 80 0.0 2.0 0.00 0.46 0.44 95 1013.2
20260506224509 55 79 0.0 2.0 0.00 0.46 0.44 95 1013.3
20260506224011 54 80 0.0 2.0 0.00 0.46 0.44 95 1013.1
20260506223513 54 96 0.0 2.0 0.00 0.46 0.44 95 1013.0
20260506223008 54 96 0.0 1.0 0.00 0.46 0.44 95 1012.8
20260506222508 54 96 0.0 3.0 0.00 0.46 0.44 95 1012.8
20260506222011 54 96 0.0 3.0 0.00 0.46 0.44 95 1012.8
20260506221509 54 103 0.0 3.0 0.00 0.46 0.44 95 1012.7
20260506221007 54 350 1.0 3.0 0.00 0.46 0.44 95 1012.8
20260506220507 54 123 0.0 3.0 0.00 0.46 0.44 94 1013.0
20260506220020 55 270 0.0 2.0 0.00 0.46 0.44 95 1012.9
20260506215507 54 270 0.0 3.0 0.00 0.46 0.44 95 1013.1
20260506215007 54 271 1.0 3.0 0.00 0.46 0.44 94 1013.1
20260506214506 55 28 0.0 4.0 0.00 0.46 0.44 94 1012.9
20260506214004 55 67 0.0 4.0 0.00 0.46 0.44 94 1012.8
20260506213503 55 310 0.0 3.0 0.00 0.46 0.44 94 1012.4
20260506213003 55 53 1.0 4.0 0.00 0.46 0.44 94 1011.7
20260506212503 55 54 1.0 4.0 0.00 0.46 0.44 94 1011.7
20260506212004 55 123 1.0 4.0 0.00 0.46 0.44 94 1011.8
20260506211502 55 102 1.0 3.0 0.00 0.46 0.44 94 1012.1
20260506211002 55 350 1.0 3.0 0.00 0.46 0.44 94 1012.3
20260506210502 55 34 1.0 4.0 0.00 0.46 0.44 94 1012.4
20260506210000 56 9 1.0 4.0 0.00 0.46 0.44 95 1012.6
20260506205602 56 293 0.0 3.0 0.00 0.46 0.44 95 1012.4
20260506205002 55 71 0.0 4.0 0.00 0.46 0.44 95 1012.1
20260506204601 55 71 1.0 4.0 0.00 0.46 0.44 94 1012.4
20260506204059 55 19 0.0 5.0 0.00 0.46 0.44 94 1012.3
20260506203558 56 273 0.0 5.0 0.00 0.46 0.44 94 1012.4
20260506203058 56 281 0.0 3.0 0.00 0.46 0.44 94 1012.4
20260506202558 56 41 1.0 3.0 0.00 0.46 0.44 94 1012.4
20260506202059 56 96 0.0 3.0 0.00 0.46 0.44 95 1012.3
20260506201557 56 54 1.0 4.0 0.01 0.46 0.44 94 1012.0
20260506201057 56 86 1.0 5.0 0.01 0.46 0.44 95 1011.6
20260506200557 56 271 0.0 5.0 0.02 0.46 0.44 95 1011.9
20260506200105 56 313 1.0 4.0 0.02 0.46 0.44 95 1012.1
20260506195556 56 338 1.0 6.0 0.02 0.46 0.44 95 1012.1
20260506195102 56 88 2.0 7.0 0.02 0.46 0.44 95 1012.1
20260506194604 56 284 2.0 10.0 0.02 0.46 0.44 95 1012.0
20260506194054 56 111 1.0 8.0 0.02 0.46 0.44 95 1011.8
20260506193558 56 55 1.0 5.0 0.02 0.46 0.44 95 1011.9
20260506193056 56 336 2.0 4.0 0.02 0.46 0.44 95 1012.2
20260506192554 56 22 1.0 6.0 0.02 0.46 0.44 95 1012.3
20260506192054 56 284 2.0 6.0 0.02 0.46 0.44 95 1012.9
20260506191604 57 291 0.0 5.0 0.01 0.45 0.43 95 1012.6
20260506191049 57 252 0.0 3.0 0.01 0.45 0.43 95 1012.6
20260506190549 57 9 1.0 4.0 0.00 0.44 0.42 95 1012.5
20260506190048 57 275 1.0 5.0 0.00 0.44 0.42 95 1012.5
20260506185547 58 311 2.0 5.0 0.00 0.44 0.42 94 1012.4
20260506185046 58 289 1.0 4.0 0.00 0.44 0.42 95 1012.3
20260506184549 58 286 1.0 3.0 0.00 0.44 0.42 95 1012.3
20260506184046 58 269 1.0 4.0 0.00 0.44 0.42 94 1012.1
20260506183545 58 26 2.0 4.0 0.00 0.44 0.42 94 1012.0
20260506183051 59 270 0.0 6.0 0.00 0.44 0.42 94 1012.1
20260506182546 59 71 1.0 6.0 0.00 0.44 0.42 94 1011.8
20260506182044 59 63 1.0 3.0 0.00 0.44 0.42 94 1011.8
20260506181555 59 270 0.0 3.0 0.00 0.44 0.42 94 1011.7
20260506181045 60 269 0.0 3.0 0.00 0.44 0.42 94 1012.0
20260506180544 60 269 0.0 1.0 0.00 0.44 0.42 94 1011.8
20260506180104 60 268 0.0 2.0 0.00 0.44 0.42 94 1011.8
20260506175543 60 268 0.0 3.0 0.00 0.44 0.42 94 1011.8
20260506175043 60 268 1.0 3.0 0.00 0.44 0.42 94 1011.9
20260506174543 60 271 0.0 4.0 0.00 0.44 0.42 94 1011.8
20260506174043 60 276 1.0 4.0 0.00 0.44 0.42 94 1011.9
20260506173545 60 275 0.0 2.0 0.00 0.44 0.42 94 1012.1
20260506173052 59 275 0.0 3.0 0.00 0.44 0.42 94 1012.1
20260506172542 59 275 1.0 3.0 0.00 0.44 0.42 94 1012.0
20260506172042 59 251 0.0 3.0 0.00 0.44 0.42 94 1012.1
20260506171545 59 300 0.0 4.0 0.00 0.44 0.42 94 1012.2
20260506171043 59 304 1.0 4.0 0.00 0.44 0.42 94 1012.3
20260506170543 59 139 1.0 5.0 0.00 0.44 0.42 94 1012.3
20260506170042 59 242 1.0 5.0 0.00 0.44 0.42 94 1012.2
20260506165541 59 271 1.0 4.0 0.00 0.44 0.42 95 1012.2
20260506165041 58 279 0.0 4.0 0.00 0.44 0.42 95 1012.0
20260506164540 58 80 0.0 4.0 0.00 0.44 0.42 95 1012.0
20260506164040 58 98 1.0 4.0 0.00 0.44 0.42 95 1011.9
20260506163540 58 61 0.0 4.0 0.00 0.44 0.42 95 1011.8
20260506163041 58 270 1.0 4.0 0.00 0.44 0.42 95 1011.8
20260506162539 58 202 2.0 4.0 0.00 0.44 0.42 95 1011.8
20260506162041 59 38 1.0 5.0 0.00 0.44 0.42 95 1011.9
20260506161540 58 294 2.0 5.0 0.00 0.44 0.42 95 1012.0
20260506161038 59 40 1.0 3.0 0.00 0.44 0.42 95 1012.0
20260506160537 58 317 0.0 4.0 0.00 0.44 0.42 95 1011.9
20260506160038 58 355 1.0 4.0 0.00 0.44 0.42 95 1011.9
20260506155538 58 234 1.0 4.0 0.00 0.44 0.42 94 1011.8
20260506155036 58 276 1.0 4.0 0.00 0.44 0.42 94 1011.6
20260506154534 58 285 1.0 4.0 0.00 0.44 0.42 94 1011.5
20260506154033 58 323 1.0 4.0 0.00 0.44 0.42 93 1011.4
20260506153532 59 305 0.0 5.0 0.00 0.44 0.42 94 1011.4
20260506153031 59 360 2.0 5.0 0.00 0.44 0.42 93 1011.3
20260506152533 60 251 1.0 5.0 0.00 0.44 0.42 92 1011.1
20260506152031 61 63 1.0 6.0 0.00 0.44 0.42 92 1011.1
20260506151529 62 309 2.0 4.0 0.00 0.44 0.42 92 1011.0
20260506151027 64 111 1.0 3.0 0.00 0.44 0.42 93 1010.9
20260506150527 64 254 0.0 4.0 0.01 0.44 0.42 94 1010.8
20260506150027 64 245 1.0 6.0 0.02 0.44 0.42 94 1010.7
20260506145527 64 188 1.0 8.0 0.03 0.44 0.42 94 1010.7
20260506145026 64 251 2.0 8.0 0.05 0.44 0.42 94 1010.4
20260506144526 64 235 2.0 9.0 0.06 0.44 0.42 94 1010.3
20260506144026 64 171 3.0 12.0 0.07 0.44 0.42 95 1009.9
20260506143525 64 236 4.0 12.0 0.08 0.44 0.42 95 1009.5
20260506143029 65 176 2.0 11.0 0.08 0.44 0.42 95 1009.3
20260506142524 65 203 3.0 9.0 0.08 0.44 0.42 95 1009.2
20260506142024 65 164 3.0 8.0 0.08 0.44 0.42 95 1009.2
20260506141532 64 186 1.0 4.0 0.08 0.44 0.42 95 1009.2
20260506141023 64 161 1.0 5.0 0.08 0.44 0.42 94 1009.0
20260506140522 64 5 1.0 5.0 0.07 0.43 0.41 93 1009.0
20260506140023 64 178 1.0 5.0 0.06 0.42 0.40 93 1009.8
20260506135521 64 169 2.0 6.0 0.05 0.41 0.39 93 1010.3
20260506135024 64 165 2.0 7.0 0.03 0.39 0.37 93 1010.9
20260506134521 64 163 1.0 7.0 0.02 0.38 0.36 93 1010.8
20260506134022 64 92 1.0 5.0 0.01 0.37 0.35 93 1010.7
20260506133519 64 190 0.0 3.0 0.00 0.36 0.34 93 1010.8
20260506133020 64 186 1.0 5.0 0.00 0.36 0.34 92 1010.5
20260506132522 64 188 1.0 5.0 0.00 0.36 0.34 93 1010.3
20260506132018 64 192 1.0 4.0 0.00 0.36 0.34 93 1010.4
20260506131523 64 279 1.0 5.0 0.00 0.36 0.34 93 1010.2
20260506131017 64 169 1.0 5.0 0.00 0.36 0.34 93 1010.0
20260506130517 64 251 2.0 7.0 0.00 0.36 0.34 92 1010.0
20260506130018 64 144 3.0 7.0 0.00 0.36 0.34 92 1010.1
20260506125515 64 196 1.0 6.0 0.00 0.36 0.34 93 1010.0
20260506125014 64 184 2.0 6.0 0.00 0.36 0.34 93 1010.0
20260506124513 64 193 1.0 5.0 0.00 0.36 0.34 93 1009.8
20260506124011 64 223 2.0 7.0 0.00 0.36 0.34 93 1009.9
20260506123515 64 165 3.0 7.0 0.01 0.36 0.34 93 1009.7
20260506123014 64 223 2.0 7.0 0.05 0.36 0.34 93 1009.6
20260506122510 64 178 1.0 7.0 0.10 0.36 0.34 93 1009.6
20260506122014 64 208 2.0 7.0 0.15 0.36 0.34 93 1009.3
20260506121509 64 207 1.0 4.0 0.20 0.36 0.34 93 1009.3
20260506121009 64 184 1.0 9.0 0.23 0.36 0.34 93 1009.2
20260506120509 63 178 1.0 5.0 0.24 0.36 0.34 93 1009.1
20260506120021 63 175 2.0 7.0 0.26 0.36 0.34 93 1009.2
20260506115514 63 187 2.0 7.0 0.27 0.36 0.34 93 1009.1
20260506115008 63 158 2.0 8.0 0.27 0.36 0.34 93 1009.0
20260506114508 63 164 2.0 8.0 0.27 0.36 0.34 93 1009.1
20260506114007 63 261 4.0 11.0 0.27 0.36 0.34 93 1008.7
20260506113506 63 150 4.0 11.0 0.25 0.34 0.32 92 1008.3
20260506113005 63 137 3.0 11.0 0.21 0.30 0.28 92 1008.9
20260506112505 63 118 1.0 8.0 0.16 0.25 0.23 92 1009.1
20260506112006 63 181 2.0 9.0 0.11 0.20 0.18 92 1008.7
20260506111504 63 166 3.0 9.0 0.07 0.15 0.13 92 1008.7
20260506111003 63 188 2.0 9.0 0.07 0.13 0.11 91 1009.4
20260506110503 63 188 2.0 6.0 0.08 0.12 0.10 91 1009.2
20260506110002 63 222 0.0 6.0 0.07 0.10 0.08 91 1009.6
20260506105602 64 229 0.0 4.0 0.07 0.09 0.07 91 1009.4
20260506105103 64 259 1.0 4.0 0.07 0.09 0.07 90 1009.4
20260506104601 64 258 0.0 2.0 0.07 0.09 0.07 90 1009.2
20260506104058 64 258 0.0 5.0 0.07 0.09 0.07 90 1009.0
20260506103600 64 258 1.0 5.0 0.07 0.09 0.07 90 1009.0
20260506103057 64 161 1.0 6.0 0.07 0.09 0.07 89 1008.7
20260506102557 64 213 1.0 6.0 0.07 0.09 0.07 89 1008.8
20260506102056 64 213 1.0 4.0 0.07 0.09 0.07 88 1008.8
20260506101554 64 232 1.0 7.0 0.06 0.08 0.06 87 1008.6
20260506101056 65 177 2.0 6.0 0.04 0.06 0.04 86 1008.7
20260506100553 65 171 2.0 6.0 0.02 0.04 0.02 85 1008.8
20260506100057 66 189 2.0 7.0 0.01 0.03 0.01 83 1008.9
20260506095550 66 130 3.0 8.0 0.00 0.02 0.00 82 1008.5
20260506095051 66 188 2.0 10.0 0.00 0.02 0.00 80 1008.3
20260506094555 67 145 4.0 10.0 0.00 0.02 0.00 79 1008.1
20260506094048 67 202 3.0 14.0 0.00 0.02 0.00 77 1008.1
20260506093547 68 273 2.0 8.0 0.00 0.02 0.00 76 1008.1
20260506093045 68 276 4.0 15.0 0.00 0.02 0.00 75 1008.0
20260506092543 68 242 6.0 15.0 0.00 0.02 0.00 74 1007.8
20260506092045 69 184 5.0 12.0 0.00 0.02 0.00 73 1007.5
20260506091544 68 180 2.0 9.0 0.00 0.02 0.00 73 1007.7
20260506091043 68 175 2.0 9.0 0.00 0.02 0.00 73 1007.4
20260506090542 68 164 3.0 10.0 0.00 0.02 0.00 73 1007.4
20260506090041 68 142 2.0 10.0 0.00 0.02 0.00 73 1007.3
20260506085540 69 263 4.0 11.0 0.00 0.02 0.00 72 1007.0
20260506085043 69 170 5.0 15.0 0.00 0.02 0.00 71 1007.0
20260506084540 69 165 5.0 15.0 0.00 0.02 0.00 69 1007.1
20260506084039 69 212 5.0 15.0 0.00 0.02 0.00 69 1007.1
20260506083539 69 284 4.0 15.0 0.00 0.02 0.00 68 1006.9
20260506083041 69 175 5.0 15.0 0.00 0.02 0.00 68 1006.7
20260506082537 69 170 5.0 15.0 0.00 0.02 0.00 68 1006.6
20260506082037 69 119 6.0 16.0 0.00 0.02 0.00 67 1006.8
20260506081537 69 239 5.0 16.0 0.00 0.02 0.00 67 1006.9
20260506081038 69 198 5.0 14.0 0.00 0.02 0.00 67 1007.0
20260506080537 69 228 4.0 14.0 0.00 0.02 0.00 67 1007.1
20260506073035 69 166 3.0 10.0 0.00 0.02 0.00 65 1006.9
20260506072539 69 207 3.0 14.0 0.00 0.02 0.00 65 1006.7
20260506072035 69 270 5.0 14.0 0.00 0.02 0.00 65 1006.8
20260506071534 69 163 4.0 10.0 0.00 0.02 0.00 65 1007.0
20260506071033 69 213 1.0 9.0 0.00 0.02 0.00 65 1007.1
20260506070534 69 281 3.0 9.0 0.00 0.02 0.00 65 1007.2
20260506062029 69 205 3.0 11.0 0.00 0.02 0.00 63 1007.6
20260506061529 69 238 4.0 11.0 0.00 0.02 0.00 63 1007.7
20260506061028 69 209 4.0 12.0 0.00 0.02 0.00 63 1007.6
20260506060526 69 168 5.0 12.0 0.00 0.02 0.00 63 1007.7